International Skating Union - Official Site

Essent ISU World Cup Salt Lake City
February 18-19, 2011

Draw | Lap Times | Index | World Cup

Referee: Ernest  KRETSCHMANN  (USA)
Starter: Hans  TERSTAPPEN  (CAN)
StartTime: EndTime: Air Temp: Ice Temp: Humidity:
13:38 15:20 18.2℃ -10.7℃ 28%
Result 10000m Men Division A
Rankings as of Feb 19 2011 3:37PM
Rank: No.: Name: Nation: Time: Behind: Points:
1 131 Bob  de JONG NED NED 12:53.17400m - 34.98 - (34.9)
800m - 1:05.62 - (30.6)
1200m - 1:36.29 - (30.6)
1600m - 2:06.92 - (30.6)
2000m - 2:37.59 - (30.6)
2400m - 3:08.38 - (30.7)
2800m - 3:39.12 - (30.7)
3200m - 4:09.78 - (30.6)
3600m - 4:40.81 - (31.0)
4000m - 5:11.84 - (31.0)
4400m - 5:42.70 - (30.8)
4800m - 6:13.65 - (30.9)
5200m - 6:44.73 - (31.0)
5600m - 7:15.50 - (30.7)
6000m - 7:46.40 - (30.9)
6400m - 8:17.39 - (30.9)
6800m - 8:48.55 - (31.1)
7200m - 9:19.38 - (30.8)
7600m - 9:49.93 - (30.5)
8000m - 10:20.41 - (30.4)
8400m - 10:51.41 - (31.0)
8800m - 11:22.18 - (30.7)
9200m - 11:52.59 - (30.4)
9600m - 12:23.10 - (30.5)
10000m - 12:53.17 - (30.0)
100
2 128 Seung-Hoon  LEE KOR KOR 12:57.27400m - 33.83 - (33.8)
800m - 1:04.27 - (30.4)
1200m - 1:35.13 - (30.8)
1600m - 2:05.47 - (30.3)
2000m - 2:35.95 - (30.4)
2400m - 3:06.65 - (30.7)
2800m - 3:37.49 - (30.8)
3200m - 4:08.39 - (30.9)
3600m - 4:39.42 - (31.0)
4000m - 5:10.21 - (30.7)
4400m - 5:41.32 - (31.1)
4800m - 6:12.34 - (31.0)
5200m - 6:43.24 - (30.9)
5600m - 7:14.25 - (31.0)
6000m - 7:45.37 - (31.1)
6400m - 8:16.64 - (31.2)
6800m - 8:47.91 - (31.2)
7200m - 9:19.13 - (31.2)
7600m - 9:50.62 - (31.4)
8000m - 10:21.91 - (31.2)
8400m - 10:53.28 - (31.3)
8800m - 11:24.78 - (31.5)
9200m - 11:56.19 - (31.4)
9600m - 12:26.94 - (30.7)
10000m - 12:57.27 - (30.3)
4.10 80
3 132 Bob  de VRIES NED NED 13:01.83400m - 34.62 - (34.6)
800m - 1:05.05 - (30.4)
1200m - 1:35.85 - (30.8)
1600m - 2:06.45 - (30.6)
2000m - 2:37.22 - (30.7)
2400m - 3:08.02 - (30.8)
2800m - 3:39.02 - (31.0)
3200m - 4:09.92 - (30.9)
3600m - 4:40.91 - (30.9)
4000m - 5:11.91 - (31.0)
4400m - 5:42.97 - (31.0)
4800m - 6:13.97 - (31.0)
5200m - 6:44.84 - (30.8)
5600m - 7:15.95 - (31.1)
6000m - 7:46.81 - (30.8)
6400m - 8:17.74 - (30.9)
6800m - 8:48.91 - (31.1)
7200m - 9:19.98 - (31.0)
7600m - 9:51.37 - (31.3)
8000m - 10:22.54 - (31.1)
8400m - 10:53.44 - (30.9)
8800m - 11:24.25 - (30.8)
9200m - 11:55.34 - (31.0)
9600m - 12:27.38 - (32.0)
10000m - 13:01.83 - (34.4)
8.66 70
4 113 Patrick  BECKERT GER GER 13:08.54400m - 35.32 - (35.3)
800m - 1:06.47 - (31.1)
1200m - 1:38.10 - (31.6)
1600m - 2:09.33 - (31.2)
2000m - 2:40.85 - (31.5)
2400m - 3:12.43 - (31.5)
2800m - 3:44.02 - (31.5)
3200m - 4:15.59 - (31.5)
3600m - 4:47.37 - (31.7)
4000m - 5:18.93 - (31.5)
4400m - 5:50.55 - (31.6)
4800m - 6:21.72 - (31.1)
5200m - 6:52.98 - (31.2)
5600m - 7:24.23 - (31.2)
6000m - 7:55.48 - (31.2)
6400m - 8:26.89 - (31.4)
6800m - 8:58.30 - (31.4)
7200m - 9:29.77 - (31.4)
7600m - 10:01.27 - (31.5)
8000m - 10:32.83 - (31.5)
8400m - 11:04.44 - (31.6)
8800m - 11:36.20 - (31.7)
9200m - 12:07.69 - (31.4)
9600m - 12:38.45 - (30.7)
10000m - 13:08.54 - (30.0)
15.37 60
5 141 Håvard  BØKKO NOR NOR 13:12.55400m - 34.76 - (34.7)
800m - 1:05.83 - (31.0)
1200m - 1:36.69 - (30.8)
1600m - 2:07.74 - (31.0)
2000m - 2:38.96 - (31.2)
2400m - 3:10.05 - (31.0)
2800m - 3:41.52 - (31.4)
3200m - 4:13.16 - (31.6)
3600m - 4:44.69 - (31.5)
4000m - 5:16.33 - (31.6)
4400m - 5:48.06 - (31.7)
4800m - 6:19.91 - (31.8)
5200m - 6:51.57 - (31.6)
5600m - 7:23.37 - (31.8)
6000m - 7:55.22 - (31.8)
6400m - 8:27.00 - (31.7)
6800m - 8:59.00 - (32.0)
7200m - 9:30.99 - (31.9)
7600m - 10:02.92 - (31.9)
8000m - 10:34.67 - (31.7)
8400m - 11:06.16 - (31.4)
8800m - 11:37.95 - (31.7)
9200m - 12:09.66 - (31.7)
9600m - 12:41.14 - (31.4)
10000m - 13:12.55 - (31.4)
19.38 50
6 137 Wouter  OLDE HEUVEL NED NED 13:17.74400m - 35.15 - (35.1)
800m - 1:05.43 - (30.2)
1200m - 1:36.25 - (30.8)
1600m - 2:07.38 - (31.1)
2000m - 2:38.37 - (30.9)
2400m - 3:09.60 - (31.2)
2800m - 3:40.82 - (31.2)
3200m - 4:12.38 - (31.5)
3600m - 4:43.85 - (31.4)
4000m - 5:15.57 - (31.7)
4400m - 5:47.11 - (31.5)
4800m - 6:18.92 - (31.8)
5200m - 6:50.61 - (31.6)
5600m - 7:22.68 - (32.0)
6000m - 7:54.40 - (31.7)
6400m - 8:26.60 - (32.2)
6800m - 8:59.03 - (32.4)
7200m - 9:31.96 - (32.9)
7600m - 10:04.57 - (32.6)
8000m - 10:37.19 - (32.6)
8400m - 11:09.55 - (32.3)
8800m - 11:42.00 - (32.4)
9200m - 12:13.98 - (31.9)
9600m - 12:45.94 - (31.9)
10000m - 13:17.74 - (31.8)
24.57 45
7 124 Dmitry  BABENKO KAZ KAZ 13:21.47400m - 34.91 - (34.9)
800m - 1:07.10 - (32.1)
1200m - 1:39.23 - (32.1)
1600m - 2:10.73 - (31.5)
2000m - 2:42.11 - (31.3)
2400m - 3:13.73 - (31.6)
2800m - 3:45.08 - (31.3)
3200m - 4:16.97 - (31.8)
3600m - 4:48.66 - (31.6)
4000m - 5:20.86 - (32.2)
4400m - 5:52.51 - (31.6)
4800m - 6:24.19 - (31.6)
5200m - 6:55.75 - (31.5)
5600m - 7:27.59 - (31.8)
6000m - 7:59.28 - (31.6)
6400m - 8:30.87 - (31.5)
6800m - 9:02.77 - (31.9)
7200m - 9:34.90 - (32.1)
7600m - 10:06.91 - (32.0)
8000m - 10:39.71 - (32.8)
8400m - 11:12.12 - (32.4)
8800m - 11:44.61 - (32.4)
9200m - 12:16.89 - (32.2)
9600m - 12:49.74 - (32.8)
10000m - 13:21.47 - (31.7)
28.30 40
8 143 Øystein  GRØDUM NOR NOR 13:21.99400m - 35.54 - (35.5)
800m - 1:06.91 - (31.3)
1200m - 1:38.85 - (31.9)
1600m - 2:10.02 - (31.1)
2000m - 2:41.29 - (31.2)
2400m - 3:12.67 - (31.3)
2800m - 3:44.25 - (31.5)
3200m - 4:15.98 - (31.7)
3600m - 4:47.69 - (31.7)
4000m - 5:19.56 - (31.8)
4400m - 5:51.72 - (32.1)
4800m - 6:23.68 - (31.9)
5200m - 6:55.84 - (32.1)
5600m - 7:28.05 - (32.2)
6000m - 8:00.43 - (32.3)
6400m - 8:32.74 - (32.3)
6800m - 9:05.01 - (32.2)
7200m - 9:37.22 - (32.2)
7600m - 10:09.35 - (32.1)
8000m - 10:41.45 - (32.1)
8400m - 11:13.85 - (32.4)
8800m - 11:45.81 - (31.9)
9200m - 12:18.03 - (32.2)
9600m - 12:50.23 - (32.2)
10000m - 13:21.99 - (31.7)
28.82 35
9 101 Joshua  LOSE AUS AUS 13:23.47400m - 35.54 - (35.5)
800m - 1:06.64 - (31.1)
1200m - 1:37.96 - (31.3)
1600m - 2:10.37 - (32.4)
2000m - 2:42.29 - (31.9)
2400m - 3:14.51 - (32.2)
2800m - 3:46.19 - (31.6)
3200m - 4:18.15 - (31.9)
3600m - 4:49.59 - (31.4)
4000m - 5:21.45 - (31.8)
4400m - 5:52.98 - (31.5)
4800m - 6:25.57 - (32.5)
5200m - 6:57.19 - (31.6)
5600m - 7:28.67 - (31.4)
6000m - 7:59.92 - (31.2)
6400m - 8:31.54 - (31.6)
6800m - 9:03.31 - (31.7)
7200m - 9:35.25 - (31.9)
7600m - 10:07.38 - (32.1)
8000m - 10:39.82 - (32.4)
8400m - 11:12.31 - (32.4)
8800m - 11:44.90 - (32.5)
9200m - 12:17.69 - (32.7)
9600m - 12:50.51 - (32.8)
10000m - 13:23.47 - (32.9)
30.30 30
10 123 Norimasa  ZAIKE JPN JPN 13:28.58400m - 35.76 - (35.7)
800m - 1:06.66 - (30.9)
1200m - 1:38.30 - (31.6)
1600m - 2:09.82 - (31.5)
2000m - 2:41.85 - (32.0)
2400m - 3:13.88 - (32.0)
2800m - 3:45.57 - (31.6)
3200m - 4:17.05 - (31.4)
3600m - 4:48.73 - (31.6)
4000m - 5:20.45 - (31.7)
4400m - 5:52.36 - (31.9)
4800m - 6:24.22 - (31.8)
5200m - 6:56.27 - (32.0)
5600m - 7:28.27 - (32.0)
6000m - 8:00.29 - (32.0)
6400m - 8:33.22 - (32.9)
6800m - 9:05.51 - (32.2)
7200m - 9:37.96 - (32.4)
7600m - 10:10.00 - (32.0)
8000m - 10:42.50 - (32.5)
8400m - 11:16.29 - (33.7)
8800m - 11:50.45 - (34.1)
9200m - 12:23.35 - (32.9)
9600m - 12:55.56 - (32.2)
10000m - 13:28.58 - (33.0)
35.41 25
11 152 Jan  SZYMANSKI POL POL 13:33.17400m - 35.57 - (35.5)
800m - 1:07.13 - (31.5)
1200m - 1:38.44 - (31.3)
1600m - 2:09.91 - (31.4)
2000m - 2:41.36 - (31.4)
2400m - 3:13.23 - (31.8)
2800m - 3:44.75 - (31.5)
3200m - 4:16.34 - (31.5)
3600m - 4:47.81 - (31.4)
4000m - 5:19.74 - (31.9)
4400m - 5:51.45 - (31.7)
4800m - 6:22.89 - (31.4)
5200m - 6:55.12 - (32.2)
5600m - 7:27.58 - (32.4)
6000m - 8:00.18 - (32.6)
6400m - 8:32.74 - (32.5)
6800m - 9:04.90 - (32.1)
7200m - 9:37.36 - (32.4)
7600m - 10:10.09 - (32.7)
8000m - 10:43.50 - (33.4)
8400m - 11:17.14 - (33.6)
8800m - 11:51.14 - (34.0)
9200m - 12:25.55 - (34.4)
9600m - 12:59.82 - (34.2)
10000m - 13:33.17 - (33.3)
40.00 20
12 129 Jorrit  BERGSMA NED NED 13:33.39400m - 35.44 - (35.4)
800m - 1:05.71 - (30.2)
1200m - 1:36.63 - (30.9)
1600m - 2:07.67 - (31.0)
2000m - 2:38.65 - (30.9)
2400m - 3:09.77 - (31.1)
2800m - 3:40.83 - (31.0)
3200m - 4:12.05 - (31.2)
3600m - 4:43.37 - (31.3)
4000m - 5:14.73 - (31.3)
4400m - 5:46.23 - (31.5)
4800m - 6:18.04 - (31.8)
5200m - 6:49.92 - (31.8)
5600m - 7:21.65 - (31.7)
6000m - 7:53.81 - (32.1)
6400m - 8:26.25 - (32.4)
6800m - 8:59.14 - (32.8)
7200m - 9:32.33 - (33.1)
7600m - 10:05.93 - (33.6)
8000m - 10:40.13 - (34.2)
8400m - 11:14.58 - (34.4)
8800m - 11:49.66 - (35.0)
9200m - 12:24.64 - (34.9)
9600m - 12:59.29 - (34.6)
10000m - 13:33.39 - (34.1)
40.22 15